Regional Weather Roundup
Issued by NWS

Home | Current Version | Previous Version | Graphics & Text | Print | Product List | Glossary On
Versions: 1 2 3 4 5 6 7 8 9 10 11 12 13 14 15 16 17 18 19 20 21 22 23 24 25 26 27 28 29 30 31 32 33 34 35 36 37 38 39 40 41 42 43 44 45 46 47 48 49 50
000
ASUS43 KBIS 201531
RWRND
NORTH DAKOTA REGIONAL WEATHER ROUNDUP
NATIONAL WEATHER SERVICE EASTERN NORTH DAKOTA/GRAND FORKS ND
1000 AM CDT FRI APR 20 2018

  NOTE: "FAIR" INDICATES FEW OR NO CLOUDS BELOW 12,000 FEET WITH NO
  SIGNIFICANT WEATHER AND/OR OBSTRUCTIONS TO VISIBILITY.

NDZ001>003-009>011-017-201600-
...NORTHWEST NORTH DAKOTA...

CITY           SKY/WX    TMP DP  RH WIND       PRES   REMARKS
WILLISTON      FAIR      44  29  55 SE9       30.23S
MINOT          FAIR      45  28  51 SE9       30.30S
MINOT AFB      FAIR      43  31  63 S9        30.30R
$$

NDZ018>021-031>035-040>046-201600-
...SOUTHWEST NORTH DAKOTA...

CITY           SKY/WX    TMP DP  RH WIND       PRES   REMARKS
BISMARCK       FAIR      45  30  55 SE16      30.33S
DICKINSON      FAIR      41  30  65 SE15      30.20S
GARRISON         N/A     39  29  67 SE13      30.30R WCI  31
HETTINGER      FAIR      38  29  70 SE15      30.22S WCI  29
$$

NDZ004>008-012>016-024-026-027-054-201600-
...NORTHEAST NORTH DAKOTA...

CITY           SKY/WX    TMP DP  RH WIND       PRES   REMARKS
GRAND FORKS    FAIR      42  35  76 S8        30.42R
GRAND FORKS AF FAIR      49  29  46 CALM      30.41R
DEVILS LAKE    FAIR      42  30  62 SE3       30.39S
$$

NDZ022-023-025-028>030-036>039-047>053-201600-
...SOUTHEAST NORTH DAKOTA...

CITY           SKY/WX    TMP DP  RH WIND       PRES   REMARKS
JAMESTOWN      FAIR      40  30  67 S10       30.38S WCI  33
FARGO          FAIR      46  32  58 S7        30.43F
WAHPETON       FAIR      43  32  65 SE9       30.46S
$$




USA.gov is the U.S. government's official web portal to all federal, state and local government web resources and services.